GW1195 Weather Reports


Display with metric or nautical units.
time (UTC)temp
F
wind
direction
speed
MPH
gust
MPH
rain 1hr
in
rain 24hr
in
rain mn
in
humidity
%
barometer
mb
20260901084542 58 0 0.0 2.0 0.00 0.00 0.00 94 1011.9
20260901083053 58 161 0.0 4.0 0.00 0.00 0.00 93 1011.8
20260901081547 58 0 0.0 2.0 0.00 0.00 0.00 92 1011.9
20260901080049 59 167 1.0 4.0 0.00 0.00 0.00 92 1011.9
20260901074559 59 0 0.0 1.0 0.00 0.00 0.00 91 1011.8
20260901073051 59 0 0.0 1.0 0.00 0.00 0.00 91 1011.7
20260901071548 59 0 0.0 2.0 0.00 0.00 0.00 90 1011.7
20260901070047 59 174 0.0 2.0 0.00 0.00 0.00 90 1011.6
20260901064552 59 0 0.0 2.0 0.00 0.00 0.00 90 1011.5
20260901063050 59 0 0.0 2.0 0.00 0.00 0.00 90 1011.5
20260901061548 59 173 0.0 2.0 0.00 0.00 0.00 90 1011.5
20260901060058 59 200 0.0 3.0 0.00 0.00 0.00 90 1011.4
20260901054551 59 0 0.0 2.0 0.00 0.00 0.00 90 1011.5
20260901053115 59 0 0.0 2.0 0.00 0.00 0.00 90 1011.4
20260901051606 59 0 0.0 1.0 0.00 0.00 0.00 90 1011.4
20260901050054 59 0 0.0 2.0 0.00 0.00 0.00 90 1011.5
20260901044605 60 0 0.0 3.0 0.00 0.00 0.00 89 1011.6
20260901043048 60 0 1.0 4.0 0.00 0.00 0.00 90 1011.6
20260901041549 60 0 1.0 4.0 0.00 0.00 0.00 89 1011.5
20260901040109 60 289 1.0 4.0 0.00 0.00 0.00 89 1011.4
20260901034607 60 301 1.0 6.0 0.00 0.00 0.00 89 1011.4
20260901033050 60 0 2.0 8.0 0.00 0.00 0.00 89 1011.0
20260901031546 60 272 2.0 7.0 0.00 0.00 0.00 89 1010.7
20260901030055 60 268 3.0 8.0 0.00 0.00 0.00 89 1010.5
20260901024624 60 275 2.0 8.0 0.00 0.00 0.00 89 1010.4
20260901023059 61 282 3.0 8.0 0.00 0.00 0.00 87 1010.4
20260901021557 61 304 3.0 9.0 0.00 0.00 0.00 86 1010.6
20260901020054 63 317 3.0 10.0 0.00 0.00 0.00 83 1010.7
20260901014554 64 284 3.0 10.0 0.00 0.00 0.00 82 1010.6
20260901013057 64 0 1.0 7.0 0.00 0.00 0.00 81 1010.6
20260901011553 66 5 2.0 8.0 0.00 0.00 0.00 79 1010.6
20260901010049 65 268 1.0 9.0 0.00 0.00 0.00 81 1010.4
20260901004558 66 275 4.0 13.0 0.00 0.00 0.00 80 1010.2
20260901003056 66 0 3.0 10.0 0.00 0.00 0.00 80 1010.3
20260901001549 66 295 4.0 9.0 0.00 0.00 0.00 79 1010.3
20260901000049 67 306 4.0 14.0 0.00 0.00 0.00 79 1010.2
20260831234547 67 323 5.0 15.0 0.00 0.00 0.00 79 1010.1
20260831233052 68 355 5.0 13.0 0.00 0.00 0.00 78 1010.1
20260831231548 68 263 3.0 12.0 0.00 0.00 0.00 77 1010.1
20260831230048 68 272 6.0 13.0 0.00 0.00 0.00 76 1010.2
20260831224549 69 314 3.0 12.0 0.00 0.00 0.00 76 1010.1
20260831223052 69 355 3.0 10.0 0.00 0.00 0.00 74 1010.0
20260831221556 69 352 4.0 10.0 0.00 0.00 0.00 71 1010.0
20260831220112 70 302 4.0 11.0 0.00 0.00 0.00 70 1010.0
20260831214549 69 325 5.0 11.0 0.00 0.00 0.00 71 1010.0
20260831213047 70 335 4.0 11.0 0.00 0.00 0.00 71 1010.1
20260831211604 70 360 5.0 11.0 0.00 0.00 0.00 70 1010.1
20260831210050 70 323 5.0 10.0 0.00 0.00 0.00 71 1010.0
20260831204554 70 355 3.0 10.0 0.00 0.00 0.00 71 1010.0
20260831203057 70 19 3.0 9.0 0.00 0.00 0.00 71 1010.0
20260831201552 69 332 4.0 9.0 0.00 0.00 0.00 72 1010.3
20260831200054 69 310 4.0 11.0 0.00 0.00 0.00 71 1010.4
20260831194550 69 290 4.0 11.0 0.00 0.00 0.00 70 1010.6
20260831193054 69 323 4.0 10.0 0.00 0.00 0.00 68 1010.5
20260831191551 70 24 3.0 9.0 0.00 0.00 0.00 68 1010.5
20260831190105 70 261 3.0 8.0 0.00 0.00 0.00 66 1010.9
20260831184601 71 246 2.0 7.0 0.00 0.00 0.00 67 1010.8
20260831183052 71 360 3.0 7.0 0.00 0.00 0.00 66 1011.0
20260831181548 73 0 1.0 4.0 0.00 0.00 0.00 62 1011.0
20260831180050 72 296 0.0 3.0 0.00 0.00 0.00 62 1011.1
20260831174554 71 0 0.0 2.0 0.00 0.00 0.00 68 1011.1
20260831173050 68 283 1.0 4.0 0.00 0.00 0.00 71 1011.4
20260831171553 67 178 0.0 2.0 0.00 0.00 0.00 72 1011.3
20260831170047 66 0 0.0 3.0 0.00 0.00 0.00 76 1011.3
20260831164601 64 0 0.0 2.0 0.00 0.00 0.00 79 1011.5
20260831163052 63 37 0.0 3.0 0.00 0.00 0.00 81 1011.7
20260831161549 60 0 0.0 3.0 0.00 0.00 0.00 87 1011.8
20260831160055 58 0 0.0 2.0 0.00 0.00 0.00 93 1011.9
20260831154612 55 68 1.0 3.0 0.00 0.00 0.00 97 1012.0
20260831153049 53 0 0.0 2.0 0.00 0.00 0.00 96 1012.1
20260831151558 52 169 0.0 2.0 0.00 0.00 0.00 96 1012.1
20260831150053 51 0 0.0 1.0 0.00 0.00 0.00 98 1012.0
20260831144559 50 0 0.0 1.0 0.00 0.00 0.00 97 1012.1
20260831143050 48 0 0.0 0.0 0.00 0.00 0.00 97 1011.9
20260831141603 48 0 0.0 0.0 0.00 0.00 0.00 96 1012.0
20260831140051 48 0 0.0 0.0 0.00 0.00 0.00 96 1011.9
20260831134553 48 0 0.0 1.0 0.00 0.00 0.00 96 1012.0
20260831133050 48 0 0.0 0.0 0.00 0.00 0.00 96 1012.0
20260831131553 48 0 0.0 0.0 0.00 0.00 0.00 96 1012.2
20260831130050 48 0 0.0 0.0 0.00 0.00 0.00 96 1012.3
20260831124553 48 0 0.0 0.0 0.00 0.00 0.00 96 1012.4
20260831123050 48 0 0.0 0.0 0.00 0.00 0.00 96 1012.6
20260831121544 48 0 0.0 0.0 0.00 0.00 0.00 96 1012.8
20260831120055 49 0 0.0 0.0 0.00 0.00 0.00 95 1012.9
20260831114550 49 0 0.0 0.0 0.00 0.00 0.00 96 1012.9
20260831113051 49 0 0.0 2.0 0.00 0.00 0.00 95 1013.0
20260831111604 50 0 0.0 1.0 0.00 0.00 0.00 96 1013.1
20260831110054 50 0 0.0 0.0 0.00 0.00 0.00 95 1013.2
20260831104559 50 0 0.0 0.0 0.00 0.00 0.00 95 1013.2
20260831103050 51 0 0.0 1.0 0.00 0.00 0.00 95 1013.2
20260831101548 51 0 0.0 0.0 0.00 0.00 0.00 95 1013.2
20260831100047 51 0 0.0 1.0 0.00 0.00 0.00 95 1013.4
20260831094553 51 172 0.0 1.0 0.00 0.00 0.00 95 1013.6
20260831093054 52 0 0.0 0.0 0.00 0.00 0.00 95 1013.8
20260831091541 52 0 0.0 0.0 0.00 0.00 0.00 94 1014.1
20260831090052 52 0 0.0 0.0 0.00 0.00 0.00 95 1014.1